Location: *
(45.1333°S, 169.6333°W)
Time: 19:46:42
(UTC+00:00)

Cosmos 2082 Rocket - Pass Details

Date: 26 May 2022
Orbit: 832 x 854 km, 71.0° (Epoch: 01 July)

Event Time Altitude Azimuth Distance (km) Brightness Sun altitude
Rises 04:46:53 0° 6° (N) 3,382 5.5 -10.0°
Reaches altitude 10° 04:49:33 10° 16° (NNE) 2,454 4.7 -10.4°
Maximum altitude 04:54:26 31° 76° (ENE) 1,439 3.0 -11.2°
Enters shadow 04:58:40 13° 132° (SE) 2,254 3.9 -11.9°
